Flag for U.S.A. Weather past 2 weeks in Tallahassee, Florida, U.S.A.

Now
90 °F

Scattered clouds.


Feels Like: 89 °F
Forecast: 64 / 90 °F
Wind: 5 mph from North

Location: Tallahassee Regional Airport

Current Time: Sep 22, 2014 at 5:04:34 PM

Latest Report: Sep 22, 2014 at 3:53 PM


Visibility: 10 mi

Pressure: 29.93 "Hg

Humidity: 35%

Dew point: 59 °F

Location of TallahasseeLocation

Historic Weather in Tallahassee — Graph

°F

Tallahassee temperature yesterday

Maximum temperature yesterday: 88 °F (at 3:53 PM)
Minimum temperature yesterday: 62 °F (at 5:53 AM)
Average temperature yesterday: 75 °F

Past Weeks' High & Low Weather Summary

 TemperatureHumidityPressure
High95 °F (Sep 12, 2:53 PM)100% (Sep 21, 5:53 AM)30.14 "Hg (Sep 21, 5:53 AM)
Low61 °F (Sep 22, 6:53 AM)33% (Sep 22, 2:53 PM)29.85 "Hg (Sep 17, 5:53 PM)
Average79 °F78%30.00 "Hg
* Reported Sep 7 3:53 PM — Sep 22 3:53 PM, Tallahassee, Weather by CustomWeather, © 2014

Note: Actual official high and low records may vary slightly from our data, if they occured in-between our weather recording intervals... More about our weather records

Advertising

Tallahassee weather history for previous 24 hours

 ConditionsComfort  
Time TempWeatherWind HumidityBarometerVisibility
3:53 PM
Sep 22
90 °FScattered clouds.5 mph35%29.93 "Hg10 mi
2:53 PM90 °FScattered clouds.No wind33%29.96 "Hg10 mi
1:53 PM88 °FScattered clouds.5 mph42%29.98 "Hg10 mi
12:53 PM88 °FScattered clouds.5 mph43%30.00 "Hg10 mi
11:53 AM85 °FScattered clouds.3 mph51%30.01 "Hg10 mi
10:53 AM83 °FPassing clouds.No wind59%30.03 "Hg10 mi
9:53 AM77 °FPassing clouds.No wind77%30.04 "Hg10 mi
8:53 AM70 °FPassing clouds.No wind87%30.03 "Hg10 mi
7:53 AM61 °FPassing clouds.No wind97%30.02 "Hg10 mi
6:53 AM61 °FPassing clouds.No wind97%30.01 "Hg10 mi
5:53 AM63 °FClear.No wind97%29.99 "Hg10 mi
4:53 AM62 °FClear.No wind96%29.97 "Hg10 mi
3:53 AM63 °FClear.No wind93%29.97 "Hg10 mi
2:53 AM65 °FClear.No wind94%29.99 "Hg10 mi
1:53 AM64 °FClear.No wind97%30.01 "Hg10 mi
12:53 AM67 °FClear.No wind90%30.02 "Hg10 mi
11:53 PM
Sep 21
67 °FClear.No wind93%30.02 "Hg10 mi
10:53 PM72 °FClear.No wind81%30.02 "Hg10 mi
9:53 PM70 °FClear.No wind87%30.02 "Hg10 mi
8:53 PM76 °FPassing clouds.No wind72%30.00 "Hg10 mi
7:53 PM78 °FPassing clouds.5 mph66%29.97 "Hg10 mi
6:53 PM85 °FPassing clouds.No wind45%29.96 "Hg10 mi
5:53 PM87 °FScattered clouds.5 mph39%29.95 "Hg10 mi
Weather by CustomWeather, © 2014

See weather overviewHow to use our weather pages